Location: Elkol
(41.7238°N, 110.6124°W)
Time: 12:37:38
(UTC+00:00)

Tiangong - Visible Passes

Search period start: 26 January 2022 00:00
Search period end: 05 February 2022 00:00
Orbit: 382 x 386 km, 41.5° (Epoch: 26 January)

Date Brightness Start Highest point End Pass type
(mag) Time Alt. Az. Time Alt. Az. Time Alt. Az.
26 Jan 3.6 02:26:13 10° SSW 02:27:07 15° S 02:27:07 15° S visible
27 Jan 3.5 01:27:43 10° S 01:29:06 12° SSE 01:30:28 10° ESE visible
27 Jan 4.3 03:02:24 10° WSW 03:02:41 12° SW 03:02:41 12° SW visible
28 Jan 2.2 02:02:56 10° SW 02:05:48 31° SSE 02:05:56 31° SSE visible
29 Jan 3.0 01:03:44 10° SSW 01:06:09 20° SSE 01:08:35 10° ESE visible
29 Jan 2.9 02:39:31 10° WSW 02:41:20 31° WSW 02:41:20 31° WSW visible
30 Jan 1.6 01:39:51 10° WSW 01:42:55 47° SSE 01:44:28 24° E visible
30 Jan 4.6 03:16:29 10° W 03:16:40 11° W 03:16:40 11° W visible
31 Jan 1.0 02:16:39 10° W 02:19:45 80° SSW 02:19:45 80° SSW visible
01 Feb 1.3 01:16:50 10° WSW 01:19:59 66° SSE 01:22:48 12° E visible
01 Feb 3.5 02:53:36 10° W 02:55:00 24° W 02:55:00 24° W visible
02 Feb 1.0 01:53:42 10° W 01:56:53 88° S 01:58:01 37° E visible
03 Feb 1.7 02:30:37 10° W 02:33:15 55° WSW 02:33:15 55° WSW visible
04 Feb 1.1 01:30:40 10° W 01:33:51 85° S 01:36:18 16° E visible
04 Feb 4.1 03:07:34 10° W 03:08:30 17° W 03:08:30 17° W visible
